Location: Newark
(34.2872°N, 118.4389°W)
Time: 21:23:12
(UTC+00:00)

LightSail 2 - Visible Passes

Search period start: 17 January 2020 00:00
Search period end: 27 January 2020 00:00
Orbit: 703 x 721 km, 24.0° (Epoch: 17 January)

Date Brightness Start Highest point End Pass type
(mag) Time Alt. Az. Time Alt. Az. Time Alt. Az.
17 Jan 7.1 03:15:25 10° SSW 03:18:36 18° S 03:18:36 18° S visible
18 Jan 7.3 02:17:46 10° SSW 02:20:43 15° SSE 02:23:41 10° SE visible
18 Jan 7.6 04:01:25 10° SW 04:02:48 16° SW 04:02:48 16° SW visible
19 Jan 6.7 03:03:19 10° SW 03:07:20 23° S 03:08:02 22° SSE visible
20 Jan 7.0 02:05:20 10° SW 02:09:03 20° SSE 02:12:47 10° ESE visible
20 Jan 7.1 03:49:43 10° SW 03:52:12 21° SSW 03:52:12 21° SSW visible
21 Jan 6.7 02:51:28 10° SW 02:55:42 25° S 02:57:25 21° SSE visible
22 Jan 6.9 01:53:17 10° SW 01:57:22 24° S 02:01:28 10° ESE visible
22 Jan 6.9 03:38:08 10° WSW 03:41:35 24° SSW 03:41:35 24° SSW visible
23 Jan 6.7 02:39:45 10° WSW 02:44:00 26° S 02:46:50 16° SE visible
23 Jan 8.0 04:25:18 10° WSW 04:25:47 12° SW 04:25:47 12° SW visible
24 Jan 6.9 01:41:25 10° SW 01:45:40 26° S 01:49:55 10° ESE visible
24 Jan 6.9 03:26:40 10° WSW 03:30:37 22° S 03:31:03 22° S visible
25 Jan 6.9 02:28:08 10° WSW 02:32:16 24° S 02:36:21 10° SE visible
25 Jan 7.8 04:14:22 10° SW 04:15:18 12° SW 04:15:18 12° SW visible
26 Jan 7.2 03:15:25 10° SW 03:18:48 18° SSW 03:20:40 15° SSE visible
